{"data":{"norad_id":63467,"epoch":"2026-09-20T15:46:06.229056Z","epoch_age_seconds":142815,"freshness":"FRESH","line1":"1 63467U 25070H   26263.65701654  .00007998  00000+0  29972-3 0  9997","line2":"2 63467  43.0035 238.7898 0001826 271.4754  88.5889 15.27592393 82793","mean_motion":15.27592393,"eccentricity":0.0001826,"inclination_deg":43.0035,"raan_deg":238.7898,"arg_perigee_deg":271.4754,"mean_anomaly_deg":88.5889,"bstar":0.00029972,"rev_number":8279,"period_min":94.265983949555,"perigee_km":481.75914138511,"apogee_km":484.26483299524,"semimajor_km":6861.1489871902,"source":"CELESTRAK","updated_at":"2026-09-21T09:00:35.008641Z"}}